Time,TemperatureF,DewpointF,PressureIn,WindDirection,WindDirectionDegrees,WindSpeedMPH,WindSpeedGustMPH,Humidity,HourlyPrecipIn,Conditions,Clouds,dailyrainin,SoftwareType,DateUTC
2013-04-25 00:01:00,62.0,7.0,-100.00,NE,34,3.0,9.0,11,-99.99,,,-99.99,,2013-04-25 00:01:00,
2013-04-25 00:12:00,62.0,9.0,-100.00,NNE,31,3.0,9.0,12,-99.99,,,-99.99,,2013-04-25 00:12:00,
2013-04-25 00:22:00,62.0,9.0,-100.00,NNE,31,3.0,9.0,12,-99.99,,,-99.99,,2013-04-25 00:22:00,
2013-04-25 00:32:00,62.0,9.0,-100.00,NNE,31,3.0,9.0,12,-99.99,,,-99.99,,2013-04-25 00:32:00,
2013-04-25 00:41:00,60.0,7.0,-100.00,NNE,17,6.0,17.0,12,-99.99,,,-99.99,,2013-04-25 00:41:00,
2013-04-25 00:52:00,59.0,5.0,-100.00,North,6,7.0,15.0,11,-99.99,,,-99.99,,2013-04-25 00:52:00,
2013-04-25 01:01:00,59.0,7.0,-100.00,North,1,8.0,18.0,12,-99.99,,,-99.99,,2013-04-25 01:01:00,
2013-04-25 01:11:00,59.0,5.0,-100.00,North,4,8.0,18.0,11,-99.99,,,-99.99,,2013-04-25 01:11:00,
2013-04-25 01:22:00,59.0,5.0,-100.00,North,4,8.0,18.0,11,-99.99,,,-99.99,,2013-04-25 01:22:00,
2013-04-25 01:32:00,59.0,5.0,-100.00,North,4,8.0,18.0,11,-99.99,,,-99.99,,2013-04-25 01:32:00,
2013-04-25 01:42:00,59.0,5.0,-100.00,North,4,8.0,18.0,11,-99.99,,,-99.99,,2013-04-25 01:42:00,
2013-04-25 02:50:00,56.0,4.0,-100.00,NNW,335,8.0,18.0,12,-99.99,,,-99.99,,2013-04-25 02:50:00,
2013-04-25 03:22:00,56.0,4.0,-100.00,NNW,335,8.0,18.0,12,-99.99,,,-99.99,,2013-04-25 03:22:00,
2013-04-25 03:33:00,56.0,4.0,-100.00,NNW,335,8.0,18.0,12,-99.99,,,-99.99,,2013-04-25 03:33:00,
2013-04-25 03:41:00,55.0,3.0,-100.00,NNW,343,4.0,15.0,12,-99.99,,,-99.99,,2013-04-25 03:41:00,
2013-04-25 03:42:00,56.0,4.0,-100.00,NNW,335,8.0,18.0,12,-99.99,,,-99.99,,2013-04-25 03:42:00,
2013-04-25 04:03:00,55.0,3.0,-100.00,NW,320,6.0,15.0,12,-99.99,,,-99.99,,2013-04-25 04:03:00,
2013-04-25 04:12:00,55.0,3.0,-100.00,NNW,343,4.0,15.0,12,-99.99,,,-99.99,,2013-04-25 04:12:00,
2013-04-25 04:22:00,55.0,3.0,-100.00,NNW,343,4.0,15.0,12,-99.99,,,-99.99,,2013-04-25 04:22:00,
2013-04-25 04:32:00,55.0,3.0,-100.00,NNW,343,4.0,15.0,12,-99.99,,,-99.99,,2013-04-25 04:32:00,
2013-04-25 05:02:00,54.0,3.0,-100.00,NNW,336,4.0,13.0,12,-99.99,,,-99.99,,2013-04-25 05:02:00,
2013-04-25 05:12:00,55.0,3.0,-100.00,NNW,328,5.0,13.0,12,-99.99,,,-99.99,,2013-04-25 05:12:00,
2013-04-25 05:21:00,55.0,3.0,-100.00,NNW,328,5.0,13.0,12,-99.99,,,-99.99,,2013-04-25 05:21:00,
2013-04-25 05:32:00,54.0,3.0,-100.00,NW,319,5.0,16.0,12,-99.99,,,-99.99,,2013-04-25 05:32:00,
2013-04-25 05:42:00,54.0,4.0,-100.00,NW,322,4.0,16.0,13,-99.99,,,-99.99,,2013-04-25 05:42:00,
2013-04-25 05:52:00,53.0,4.0,-100.00,NW,322,4.0,12.0,13,-99.99,,,-99.99,,2013-04-25 05:52:00,
2013-04-25 06:01:00,53.0,4.0,-100.00,NW,311,2.0,10.0,13,-99.99,,,-99.99,,2013-04-25 06:01:00,
2013-04-25 06:22:00,53.0,4.0,-100.00,NW,305,3.0,8.0,13,-99.99,,,-99.99,,2013-04-25 06:22:00,
2013-04-25 06:31:00,53.0,4.0,-100.00,NW,305,3.0,8.0,13,-99.99,,,-99.99,,2013-04-25 06:31:00,
2013-04-25 06:41:00,52.0,3.0,-100.00,NW,316,2.0,10.0,13,-99.99,,,-99.99,,2013-04-25 06:41:00,
2013-04-25 06:52:00,52.0,3.0,-100.00,NW,316,2.0,10.0,13,-99.99,,,-99.99,,2013-04-25 06:52:00,
2013-04-25 07:01:00,52.0,3.0,-100.00,WNW,292,4.0,12.0,13,-99.99,,,-99.99,,2013-04-25 07:01:00,
2013-04-25 07:21:00,52.0,4.0,-100.00,WNW,301,3.0,15.0,14,-99.99,,,-99.99,,2013-04-25 07:21:00,
2013-04-25 07:31:00,52.0,4.0,-100.00,NW,305,3.0,11.0,14,-99.99,,,-99.99,,2013-04-25 07:31:00,
2013-04-25 07:52:00,49.0,5.0,-100.00,NW,320,1.0,7.0,16,-99.99,,,-99.99,,2013-04-25 07:52:00,
2013-04-25 08:01:00,49.0,5.0,-100.00,SW,222,2.0,11.0,16,-99.99,,,-99.99,,2013-04-25 08:01:00,
2013-04-25 08:11:00,49.0,5.0,-100.00,WSW,253,1.0,8.0,16,-99.99,,,-99.99,,2013-04-25 08:11:00,
2013-04-25 08:21:00,48.0,4.0,-100.00,West,264,0.0,7.0,16,-99.99,,,-99.99,,2013-04-25 08:21:00,
2013-04-25 08:31:00,48.0,4.0,-100.00,West,274,0.0,7.0,16,-99.99,,,-99.99,,2013-04-25 08:31:00,
2013-04-25 08:41:00,48.0,4.0,-100.00,South,191,1.0,3.0,16,-99.99,,,-99.99,,2013-04-25 08:41:00,
2013-04-25 08:51:00,49.0,4.0,-100.00,WSW,237,1.0,11.0,15,-99.99,,,-99.99,,2013-04-25 08:51:00,
2013-04-25 09:01:00,49.0,3.0,-100.00,SSW,212,0.0,7.0,15,-99.99,,,-99.99,,2013-04-25 09:01:00,
2013-04-25 09:11:00,46.0,5.0,-100.00,SSW,199,0.0,7.0,18,-99.99,,,-99.99,,2013-04-25 09:11:00,
2013-04-25 09:21:00,48.0,5.0,-100.00,NW,306,2.0,10.0,17,-99.99,,,-99.99,,2013-04-25 09:21:00,
2013-04-25 09:32:00,48.0,5.0,-100.00,NW,306,2.0,10.0,17,-99.99,,,-99.99,,2013-04-25 09:32:00,
2013-04-25 09:42:00,48.0,4.0,-100.00,NW,319,3.0,10.0,16,-99.99,,,-99.99,,2013-04-25 09:42:00,
2013-04-25 09:52:00,48.0,4.0,-100.00,NNW,333,2.0,11.0,16,-99.99,,,-99.99,,2013-04-25 09:52:00,
2013-04-25 10:02:00,45.0,6.0,-100.00,South,175,0.0,2.0,19,-99.99,,,-99.99,,2013-04-25 10:02:00,
2013-04-25 10:12:00,45.0,5.0,-100.00,ESE,107,0.0,8.0,19,-99.99,,,-99.99,,2013-04-25 10:12:00,
2013-04-25 10:22:00,42.0,7.0,-100.00,North,350,0.0,6.0,23,-99.99,,,-99.99,,2013-04-25 10:22:00,
2013-04-25 10:32:00,42.0,9.0,-100.00,West,267,1.0,9.0,25,-99.99,,,-99.99,,2013-04-25 10:32:00,
2013-04-25 10:42:00,42.0,10.0,-100.00,SSW,196,1.0,9.0,26,-99.99,,,-99.99,,2013-04-25 10:42:00,
2013-04-25 10:52:00,41.0,9.0,-100.00,WSW,254,0.0,8.0,26,-99.99,,,-99.99,,2013-04-25 10:52:00,
2013-04-25 11:02:00,40.0,11.0,-100.00,SE,137,0.0,7.0,29,-99.99,,,-99.99,,2013-04-25 11:02:00,
2013-04-25 11:12:00,40.0,10.0,-100.00,South,178,0.0,1.0,28,-99.99,,,-99.99,,2013-04-25 11:12:00,
2013-04-25 11:22:00,41.0,8.0,-100.00,SW,216,0.0,9.0,25,-99.99,,,-99.99,,2013-04-25 11:22:00,
2013-04-25 11:32:00,40.0,10.0,-100.00,South,178,0.0,1.0,28,-99.99,,,-99.99,,2013-04-25 11:32:00,
2013-04-25 11:42:00,42.0,8.0,-100.00,NNW,344,0.0,10.0,24,-99.99,,,-99.99,,2013-04-25 11:42:00,
2013-04-25 11:51:00,43.0,9.0,-100.00,South,178,0.0,2.0,24,-99.99,,,-99.99,,2013-04-25 11:51:00,
2013-04-25 12:01:00,44.0,9.0,-100.00,SSW,210,1.0,2.0,23,-99.99,,,-99.99,,2013-04-25 12:01:00,
2013-04-25 12:12:00,44.0,9.0,-100.00,South,191,0.0,3.0,23,-99.99,,,-99.99,,2013-04-25 12:12:00,
2013-04-25 12:21:00,43.0,8.0,-100.00,South,188,0.0,9.0,23,-99.99,,,-99.99,,2013-04-25 12:21:00,
2013-04-25 12:31:00,43.0,8.0,-100.00,South,188,0.0,9.0,23,-99.99,,,-99.99,,2013-04-25 12:31:00,
2013-04-25 12:41:00,42.0,8.0,-100.00,South,172,0.0,7.0,24,-99.99,,,-99.99,,2013-04-25 12:41:00,
2013-04-25 12:51:00,41.0,9.0,-100.00,NNE,16,0.0,6.0,26,-99.99,,,-99.99,,2013-04-25 12:51:00,
2013-04-25 13:02:00,45.0,7.0,-100.00,SSW,200,1.0,7.0,21,-99.99,,,-99.99,,2013-04-25 13:02:00,
2013-04-25 15:02:00,48.0,14.0,-100.00,East,100,0.0,2.0,25,-99.99,,,-99.99,,2013-04-25 15:02:00,
2013-04-25 15:11:00,45.0,14.0,-100.00,SE,126,1.0,10.0,28,-99.99,,,-99.99,,2013-04-25 15:11:00,
2013-04-25 15:21:00,45.0,14.0,-100.00,SE,134,1.0,4.0,28,-99.99,,,-99.99,,2013-04-25 15:21:00,
2013-04-25 15:33:00,45.0,14.0,-100.00,SE,134,1.0,4.0,28,-99.99,,,-99.99,,2013-04-25 15:33:00,
2013-04-25 15:42:00,47.0,18.0,-100.00,ESE,113,1.0,10.0,31,-99.99,,,-99.99,,2013-04-25 15:42:00,
2013-04-25 15:52:00,47.0,16.0,-100.00,ESE,106,2.0,11.0,29,-99.99,,,-99.99,,2013-04-25 15:52:00,
2013-04-25 16:02:00,47.0,16.0,-100.00,East,100,2.0,5.0,28,-99.99,,,-99.99,,2013-04-25 16:02:00,
2013-04-25 16:13:00,48.0,17.0,-100.00,East,90,2.0,12.0,29,-99.99,,,-99.99,,2013-04-25 16:13:00,
2013-04-25 16:24:00,49.0,17.0,-100.00,East,96,2.0,12.0,27,-99.99,,,-99.99,,2013-04-25 16:24:00,
2013-04-25 16:32:00,49.0,18.0,-100.00,ESE,104,2.0,8.0,29,-99.99,,,-99.99,,2013-04-25 16:32:00,
2013-04-25 16:42:00,50.0,19.0,-100.00,ESE,110,2.0,8.0,29,-99.99,,,-99.99,,2013-04-25 16:42:00,
2013-04-25 16:52:00,51.0,18.0,-100.00,ESE,107,2.0,5.0,27,-99.99,,,-99.99,,2013-04-25 16:52:00,
2013-04-25 17:02:00,52.0,19.0,-100.00,East,100,2.0,13.0,27,-99.99,,,-99.99,,2013-04-25 17:02:00,
2013-04-25 17:10:00,54.0,22.0,-100.00,ENE,62,2.0,7.0,29,-99.99,,,-99.99,,2013-04-25 17:10:00,
2013-04-25 17:11:00,54.0,21.0,-100.00,East,82,2.0,13.0,27,-99.99,,,-99.99,,2013-04-25 17:11:00,
2013-04-25 17:22:00,54.0,21.0,-100.00,ENE,68,2.0,8.0,27,-99.99,,,-99.99,,2013-04-25 17:22:00,
2013-04-25 17:32:00,54.0,21.0,-100.00,ENE,68,2.0,8.0,27,-99.99,,,-99.99,,2013-04-25 17:32:00,
2013-04-25 17:42:00,54.0,22.0,-100.00,ENE,62,2.0,7.0,29,-99.99,,,-99.99,,2013-04-25 17:42:00,
2013-04-25 17:53:00,54.0,22.0,-100.00,ENE,62,2.0,7.0,29,-99.99,,,-99.99,,2013-04-25 17:53:00,
2013-04-25 18:01:00,54.0,22.0,-100.00,ENE,62,2.0,7.0,29,-99.99,,,-99.99,,2013-04-25 18:01:00,
2013-04-25 19:52:00,65.0,16.0,-100.00,East,85,4.0,11.0,15,-99.99,,,-99.99,,2013-04-25 19:52:00,
2013-04-25 20:01:00,65.0,19.0,-100.00,ENE,69,4.0,12.0,17,-99.99,,,-99.99,,2013-04-25 20:01:00,
2013-04-25 20:11:00,65.0,18.0,-100.00,ENE,59,3.0,13.0,16,-99.99,,,-99.99,,2013-04-25 20:11:00,
2013-04-25 20:22:00,66.0,21.0,-100.00,ENE,61,4.0,13.0,18,-99.99,,,-99.99,,2013-04-25 20:22:00,
2013-04-25 20:32:00,66.0,23.0,-100.00,East,90,5.0,10.0,19,-99.99,,,-99.99,,2013-04-25 20:32:00,
2013-04-25 20:42:00,67.0,19.0,-100.00,ENE,72,4.0,10.0,16,-99.99,,,-99.99,,2013-04-25 20:42:00,
2013-04-25 20:51:00,67.0,21.0,-100.00,East,93,4.0,10.0,17,-99.99,,,-99.99,,2013-04-25 20:51:00,
2013-04-25 21:01:00,66.0,22.0,-100.00,ENE,69,3.0,11.0,18,-99.99,,,-99.99,,2013-04-25 21:01:00,
2013-04-25 21:11:00,68.0,19.0,-100.00,SSE,160,7.0,16.0,15,-99.99,,,-99.99,,2013-04-25 21:11:00,
2013-04-25 21:21:00,67.0,18.0,-100.00,East,92,5.0,16.0,15,-99.99,,,-99.99,,2013-04-25 21:21:00,
2013-04-25 21:33:00,68.0,17.0,-100.00,West,268,4.0,14.0,14,-99.99,,,-99.99,,2013-04-25 21:33:00,
2013-04-25 21:42:00,69.0,18.0,-100.00,West,260,5.0,18.0,14,-99.99,,,-99.99,,2013-04-25 21:42:00,
2013-04-25 21:52:00,69.0,16.0,-100.00,WSW,241,5.0,15.0,13,-99.99,,,-99.99,,2013-04-25 21:52:00,
2013-04-25 22:02:00,69.0,14.0,-100.00,West,260,4.0,18.0,12,-99.99,,,-99.99,,2013-04-25 22:02:00,
2013-04-25 22:12:00,69.0,16.0,-100.00,West,261,4.0,18.0,13,-99.99,,,-99.99,,2013-04-25 22:12:00,
2013-04-25 22:22:00,68.0,16.0,-100.00,NW,305,4.0,12.0,13,-99.99,,,-99.99,,2013-04-25 22:22:00,
2013-04-25 22:32:00,69.0,18.0,-100.00,WNW,285,4.0,12.0,14,-99.99,,,-99.99,,2013-04-25 22:32:00,
2013-04-25 22:42:00,68.0,17.0,-100.00,WNW,284,5.0,13.0,14,-99.99,,,-99.99,,2013-04-25 22:42:00,
2013-04-25 22:52:00,69.0,16.0,-100.00,West,274,4.0,12.0,13,-99.99,,,-99.99,,2013-04-25 22:52:00,
2013-04-25 23:02:00,69.0,18.0,-100.00,WNW,284,5.0,13.0,14,-99.99,,,-99.99,,2013-04-25 23:02:00,
2013-04-25 23:12:00,68.0,17.0,-100.00,WNW,289,5.0,12.0,14,-99.99,,,-99.99,,2013-04-25 23:12:00,
2013-04-25 23:21:00,68.0,17.0,-100.00,WNW,295,6.0,15.0,14,-99.99,,,-99.99,,2013-04-25 23:21:00,
2013-04-25 23:32:00,67.0,16.0,-100.00,NW,309,6.0,18.0,14,-99.99,,,-99.99,,2013-04-25 23:32:00,
2013-04-25 23:41:00,67.0,16.0,-100.00,NW,312,7.0,16.0,14,-99.99,,,-99.99,,2013-04-25 23:41:00,
2013-04-25 23:52:00,68.0,18.0,-100.00,WNW,288,6.0,15.0,15,-99.99,,,-99.99,,2013-04-25 23:52:00,